Location: ????????
(55.0559°N, 39.1270°E)
Time: 08:09:38
(UTC+00:00)

Cosmos 2061 Rocket - Pass Details

Date: 15 November 2025
Orbit: 964 x 1012 km, 82.9° (Epoch: 14 December)

Event Time Altitude Azimuth Distance (km) Brightness Sun altitude
Rises 02:27:02 0° 346° (NNW) 3,674 6.9 -20.9°
Reaches altitude 10° 02:29:36 10° 342° (NNW) 2,719 6.1 -20.6°
Maximum altitude 02:35:36 53° 268° (W) 1,179 4.0 -19.7°
Drops below altitude 10° 02:41:33 10° 194° (SSW) 2,701 6.2 -18.8°
Sets 02:44:06 0° 189° (S) 3,646 7.0 -18.5°
